Tracking 31027 objects as of 19-Jul-2025
HD Live streaming from Space Station
objects crossing your sky now

DMSP 5D-2 F11 DEB

Track DMSP 5D-2 F11 DEB now!
10-day predictions


NORAD ID: 28349
Int'l Code: 1991-082BN
Perigee: 708.7 km
Apogee: 781.4 km
Inclination: 98.9 °
Period: 99.6 minutes
Semi major axis: 7116 km
RCS: 0.01 m2 (small)
Launch date: November 28, 1991
Source: United States (US)
Launch site: AIR FORCE WESTERN TEST RANGE (AFWTR)

Note: This is SATELLITE DEBRIS
Your satellite tracking list
Your tracking list is empty




NASA's NSSDC Master Catalog

Two Line Element Set (TLE):
1 28349U 91082BN  25198.15201072  .00004993  00000-0  13849-2 0  9991
2 28349  98.8789 265.6716 0051042 279.4671 110.7544 14.46255358 91889
Source of the keplerian elements: AFSPC